Location: Sternwarte-Kraichtal
(49.1689°N, 8.6996°E)
Time: 20:34:15
(UTC+02:00)

Vanguard 2 Rocket - Pass Details

Date: 02 June 2022
Orbit: 553 x 3323 km, 32.9° (Epoch: 02 July)

Event Time Altitude Azimuth Distance (km) Brightness Sun altitude
Rises 09:15:33 0° 170° (S) 6,492 11.4 34.8°
Reaches altitude 10° 09:25:51 10° 140° (SE) 6,049 11.8 36.5°
Maximum altitude 09:29:43 11° 128° (SE) 6,095 12.1 37.1°
Drops below altitude 10° 09:33:40 10° 116° (ESE) 6,255 12.3 37.7°
Sets 09:45:01 0° 88° (E) 7,220 12.3 39.6°
